Theta_e
342 343 343 342 344 344 346 347 347 346 345 345 344 349 349 350 350 347 344 346 347 349 345 347 352 349 352 351 349 350 349 349 350 350 350 348 349 348 349 349 350 349 348
343 342 343 344 342 340 344 345 346 344 343 343 342 348 351 350 351 351 350 351 349 351 347 346 352 352 352 349 349 351 349 348 348 349 350 347 346 348 349 347 349 351 348
343 343 342 344 344 344 345 345 347 344 343 344 350 351 350 351 351 351 351 352 352 352 351 351 349 349 350 351 351 348 348 349 349 348 347 346 345 346 345 342 341 343 344
342 342 341 339 342 342 340 345 345 346 341 345 347 346 351 351 352 351 349 352 352 351 349 349 348 351 352 351 351 351 350 350 346 342 346 345 344 346 348 344 339 338 337
341 340 339 341 341 337 334 337 337 340 343 343 345 351 347 347 346 351 351 348 351 351 352 350 351 351 350 349 349 348 349 348 349 348 347 347 349 349 347 346 349 346 345
341 339 342 341 335 337 337 335 333 337 341 344 346 345 344 344 345 348 352 352 352 352 346 346 346 345 348 348 348 347 346 345 345 348 347 347 347 344 343 340 338 335 336
340 339 336 340 342 337 338 335 335 339 341 343 344 346 351 350 349 352 351 352 350 351 351 348 345 345 346 343 344 345 345 342 346 347 345 346 346 339 337 337 340 342 345
339 338 338 338 339 338 335 336 334 336 340 342 343 343 348 352 353 352 351 351 351 350 347 344 343 345 342 342 343 344 344 344 345 344 340 342 337 337 341 342 343 344 342
342 335 338 340 338 340 341 339 334 333 340 342 343 345 352 352 350 349 349 349 348 347 346 340 342 342 339 341 342 345 343 342 344 339 337 340 338 340 342 343 344 345 343
344 345 336 335 340 341 340 341 343 342 341 343 345 350 352 351 351 349 348 351 351 349 343 336 336 338 338 340 342 342 341 342 343 341 340 341 339 340 342 344 346 343 343
345 344 343 340 341 342 344 343 345 349 348 347 350 347 348 348 348 348 348 351 350 345 340 338 335 334 336 339 341 341 341 344 343 344 343 338 339 340 342 345 343 338 338
346 347 341 340 341 346 349 348 345 349 350 349 348 343 344 345 348 346 344 343 343 344 343 342 342 341 342 346 346 342 345 347 349 349 346 337 338 340 341 346 343 343 337
345 346 345 345 344 349 347 346 344 344 346 344 342 340 341 343 343 344 344 343 344 341 344 344 345 346 346 348 349 349 349 349 349 350 342 337 338 339 340 342 343 343 338
345 347 346 344 343 347 347 347 342 346 345 344 345 345 344 343 337 336 340 337 339 345 345 345 346 345 346 346 346 347 348 348 348 346 342 337 338 339 339 340 344 346 340
343 345 346 345 343 343 343 340 342 341 345 345 344 344 341 342 341 342 343 343 345 345 346 344 345 349 347 346 341 340 341 342 344 339 337 337 339 339 342 343 351 348 339
343 344 345 345 342 341 342 337 341 343 344 345 344 343 342 344 346 345 343 344 345 346 346 346 347 346 347 347 342 340 341 344 341 340 341 340 339 340 344 338 338 342 346
343 344 344 346 342 340 339 340 341 343 344 344 343 343 344 345 344 343 344 345 344 344 345 345 345 345 348 344 342 340 342 342 345 340 340 344 345 345 342 335 345 346 347
344 344 345 345 344 341 338 340 343 342 342 342 342 343 344 345 345 345 344 343 343 343 344 346 346 349 348 346 344 341 341 341 341 343 347 343 346 344 341 338 344 347 347
344 344 344 344 345 343 341 341 342 342 342 342 342 343 343 346 346 345 343 341 342 343 345 347 345 345 349 347 344 343 342 343 343 342 342 344 343 340 342 337 339 346 346
343 344 344 341 344 343 342 342 342 342 341 342 341 341 341 345 347 344 343 341 337 343 345 346 344 343 343 346 344 344 344 344 342 344 341 340 341 340 346 340 343 347 346
343 342 339 339 343 342 342 343 343 344 342 342 343 343 345 345 346 344 341 334 333 335 343 345 343 343 345 343 343 343 342 340 342 342 341 342 345 342 340 345 349 351 351
344 343 341 338 343 342 344 344 344 344 343 347 344 345 346 346 346 345 342 335 337 338 340 343 343 346 341 337 344 343 344 343 342 342 342 345 345 344 347 347 350 350 347
345 345 344 341 341 343 344 344 342 343 344 345 343 346 345 346 346 346 343 339 338 341 344 342 340 342 345 342 340 342 345 344 340 343 346 348 348 348 345 344 347 346 348
345 345 345 344 339 341 344 346 347 345 347 348 347 348 346 346 346 345 337 337 336 338 342 344 347 345 345 347 345 343 342 341 347 347 347 349 348 349 347 347 348 347 349
346 346 346 346 344 344 345 345 347 346 346 348 346 346 344 342 343 346 343 336 341 348 346 350 350 346 350 349 348 348 349 348 347 350 348 347 350 347 353 354 353 350 349
346 347 347 347 345 344 346 344 345 348 347 347 348 349 350 351 349 346 347 347 345 347 350 352 349 351 353 350 350 347 349 350 350 352 352 352 351 348 348 354 350 350 349
Wind_Speed
9 8 7 9 8 10 11 13 12 13 13 14 15 15 14 14 13 14 14 12 13 12 12 12 12 12 12 12 13 12 12 12 12 13 12 11 9 10 10 10 11 9 8
12 10 12 11 10 11 11 13 13 14 13 14 14 15 15 15 14 15 15 14 15 13 13 13 12 12 13 12 12 12 12 12 11 11 10 10 8 8 8 8 11 7 6
12 12 14 15 13 14 14 15 15 14 13 13 14 15 15 15 15 15 16 16 15 14 14 13 13 12 12 11 10 11 11 11 9 8 9 7 7 8 8 7 6 4 4
13 12 13 14 14 13 14 17 16 16 13 12 12 14 14 15 16 15 16 16 15 15 15 14 13 13 12 12 11 10 9 10 9 8 7 6 6 6 7 7 6 5 4
13 12 11 13 11 10 14 15 20 18 13 10 10 12 14 16 18 17 16 17 16 16 14 14 14 12 12 10 9 7 5 5 5 6 4 4 5 3 5 3 5 5 7
11 12 13 13 13 8 14 19 19 15 11 5 9 12 14 16 18 18 17 17 15 15 15 14 12 11 10 8 6 4 4 4 3 1 2 2 3 1 2 3 5 4 6
12 14 13 10 10 16 20 19 15 10 9 4 8 12 14 15 18 18 16 15 14 14 14 13 11 10 8 6 5 4 3 4 5 3 3 2 2 3 4 7 6 6 9
13 12 12 11 13 16 17 16 10 8 7 4 9 12 15 15 16 16 15 14 13 12 12 11 10 8 6 5 5 7 6 7 5 2 1 0 1 4 6 7 7 9 7
13 13 13 13 13 16 15 13 8 6 5 7 9 12 14 15 15 16 14 13 12 11 10 8 7 5 4 3 5 6 5 4 2 2 1 2 3 4 5 6 8 8 7
10 11 13 9 10 13 14 11 13 11 8 8 8 10 13 13 13 14 14 11 10 10 9 6 5 4 2 2 2 3 6 6 1 3 3 3 3 3 3 4 5 7 8
9 9 11 11 10 11 12 11 10 7 8 8 7 7 10 11 10 10 10 9 8 9 8 7 5 3 1 1 1 2 2 1 2 3 2 3 3 4 4 5 7 18 8
11 9 10 10 10 10 8 9 10 7 7 6 6 6 8 8 7 7 7 8 8 7 7 6 5 3 1 2 4 5 5 4 4 4 3 3 5 7 7 9 10 15 17
11 9 8 8 9 8 8 8 7 7 6 7 7 8 7 7 5 5 5 4 4 4 3 3 3 1 3 4 6 6 6 5 4 3 4 5 7 9 10 12 11 14 13
9 10 9 10 9 7 7 7 8 7 6 6 6 5 4 4 4 5 4 4 5 4 2 1 0 1 2 3 5 5 5 4 3 3 5 4 6 10 13 14 12 14 11
11 11 11 10 9 9 8 9 9 6 4 5 5 3 7 6 5 3 2 3 4 5 3 2 1 1 2 2 2 1 4 4 3 3 5 6 9 10 12 11 11 13 7
13 13 11 10 10 10 9 11 8 5 3 1 2 4 4 3 3 4 4 4 4 4 4 3 1 2 4 3 3 3 2 5 5 6 5 8 10 10 9 11 16 5 2
12 12 12 11 11 11 11 11 7 5 2 1 1 2 2 2 3 3 2 2 2 3 6 5 4 5 5 3 3 2 2 2 3 6 9 8 8 9 7 10 7 5 6
11 13 11 10 12 12 12 11 7 4 2 2 2 3 1 0 1 0 1 1 2 2 4 6 5 4 3 2 2 3 4 5 4 4 5 8 7 8 9 10 3 1 4
13 13 13 11 11 11 12 11 8 6 5 3 6 5 1 2 3 3 4 4 5 3 4 4 5 3 1 3 3 3 5 6 6 5 8 9 9 7 7 4 2 1 1
12 13 14 15 13 13 12 12 10 9 6 5 6 5 7 6 5 4 6 7 6 4 3 3 3 4 1 2 4 6 7 7 8 7 8 6 7 6 4 4 5 3 1
13 13 14 16 16 14 11 9 8 8 8 8 9 8 6 7 7 6 6 5 5 5 5 4 3 3 3 5 4 6 7 9 8 9 6 6 5 4 4 5 4 3 2
16 15 15 18 18 17 12 11 8 8 7 6 8 7 8 7 6 5 6 4 5 3 6 7 9 5 4 4 2 3 3 1 3 4 4 4 3 3 2 3 3 3 4
18 18 17 20 21 18 16 12 10 8 6 7 7 9 9 7 7 6 7 7 3 1 3 4 3 3 3 4 5 3 2 3 6 3 4 6 6 3 2 3 4 3 4
22 18 17 18 22 22 19 14 12 11 10 8 7 7 8 7 7 7 4 3 5 4 3 3 2 1 3 3 2 4 4 3 3 1 1 6 5 6 3 3 2 1 2
20 21 20 18 20 21 21 19 14 13 11 7 8 9 8 8 7 5 3 3 3 2 3 2 2 2 2 2 1 1 1 2 2 3 4 7 5 4 5 4 2 2 2
19 19 19 20 22 21 21 22 19 14 11 10 8 9 7 7 7 7 7 7 6 4 3 3 3 1 1 2 1 1 2 2 3 3 3 7 8 6 3 4 2 3 1
Wind_Direction
151 137 125 121 114 105 94 102 108 114 121 126 128 123 123 117 116 117 118 116 111 108 114 109 106 103 102 94 89 90 92 100 104 104 99 88 92 87 88 88 78 82 88
143 125 123 108 101 97 91 90 101 103 111 122 115 120 120 117 120 116 116 114 113 113 112 112 106 103 102 101 99 98 93 93 99 98 91 75 80 81 80 78 81 78 75
131 118 121 108 100 88 79 81 86 98 108 113 117 120 121 122 120 116 116 117 113 111 109 106 108 107 108 109 100 91 90 93 93 95 93 75 80 79 79 79 83 80 69
130 122 119 115 102 108 98 90 87 82 88 97 111 114 116 120 118 119 117 118 117 112 113 113 113 113 111 106 100 90 82 81 76 76 69 71 80 83 84 70 73 72 70
128 124 117 110 126 126 104 100 100 89 81 91 108 107 112 116 119 112 111 111 110 112 116 115 111 110 109 104 93 87 81 40 32 53 68 80 88 70 90 120 52 21 22
127 132 124 118 100 135 137 98 102 83 88 96 111 111 113 112 113 112 109 109 109 110 115 113 112 112 105 95 81 55 35 20 47 77 58 41 68 106 47 33 27 16 48
122 127 123 125 135 97 116 109 99 90 87 99 111 112 107 110 108 105 106 107 108 109 112 115 118 118 108 88 57 29 37 56 65 63 16 15 20 30 6 31 15 359 53
124 128 131 126 129 119 105 102 100 103 107 114 111 108 105 110 107 105 105 106 109 113 119 123 128 124 106 76 54 54 72 60 50 29 352 345 16 40 22 21 2 350 27
127 132 133 138 140 140 136 146 129 85 120 152 120 108 102 102 103 103 107 110 109 108 110 119 129 124 108 75 48 53 57 49 50 21 349 11 19 29 19 5 352 356 336
137 144 143 129 150 141 144 156 155 161 161 131 121 107 107 102 101 111 105 103 101 101 107 120 132 136 101 62 40 44 44 43 2 3 347 344 356 351 350 334 310 331 337
145 150 156 166 154 147 140 144 142 142 138 136 116 112 104 101 99 99 111 93 94 104 111 116 122 119 88 335 335 344 352 308 297 316 323 317 299 291 303 281 302 348 331
157 156 161 157 152 142 141 147 145 151 141 136 120 110 103 99 94 100 97 106 104 106 105 99 97 98 108 252 259 272 262 272 283 283 274 279 276 275 280 282 307 331 350
160 157 154 158 158 149 155 156 161 162 138 116 109 101 99 100 101 82 91 88 82 77 75 87 89 103 244 252 255 258 260 260 270 287 259 265 284 293 296 296 310 329 352
164 160 164 171 168 158 160 172 162 145 124 112 109 93 101 96 97 104 106 95 71 32 41 57 151 242 276 285 267 257 245 234 239 243 249 264 295 306 310 315 320 317 322
177 176 179 178 171 169 170 166 159 147 127 104 96 113 89 97 109 103 83 68 63 43 54 94 63 332 328 325 335 309 236 219 206 226 242 268 287 312 325 331 317 308 312
184 188 186 179 178 176 173 167 160 161 157 139 100 97 107 83 84 104 95 91 67 53 77 72 27 343 343 338 325 336 276 230 237 248 274 291 293 306 325 343 334 343 69
189 190 189 178 182 182 174 172 184 184 151 96 108 133 110 117 101 108 109 76 65 41 42 26 349 320 328 332 317 291 335 292 329 295 307 304 308 312 317 354 14 84 47
200 192 192 186 189 185 184 188 187 182 204 276 216 193 195 354 171 173 347 357 327 27 24 9 340 327 320 313 282 277 292 299 298 314 322 316 314 308 313 315 343 63 43
211 199 197 200 199 194 196 196 200 213 232 242 211 199 270 273 232 267 315 322 305 328 353 3 352 357 323 257 280 290 289 297 306 310 316 320 331 334 323 325 308 345 48
210 206 201 214 213 211 212 216 220 231 241 219 211 218 251 259 253 272 303 307 301 275 316 334 15 40 14 287 296 289 287 286 296 305 330 336 334 342 349 357 329 296 220
208 204 207 209 213 211 208 208 212 215 213 236 227 234 236 240 242 267 293 311 281 263 251 254 292 310 350 350 309 297 285 284 283 305 316 326 328 335 334 360 351 317 296
204 209 214 210 213 215 212 199 199 194 209 212 202 220 232 232 244 277 289 297 315 262 247 255 265 295 296 356 339 304 327 353 32 349 355 7 346 6 15 24 333 333 9
207 206 211 207 212 216 212 204 195 190 204 198 219 227 236 235 240 286 295 254 279 315 266 237 271 276 302 18 30 359 298 11 340 343 9 14 27 343 336 3 337 360 35
207 203 207 209 211 219 217 213 213 204 203 210 215 220 215 232 242 281 307 204 215 254 243 246 281 326 18 22 30 51 40 34 356 309 22 359 13 32 20 348 325 293 26
200 201 205 209 214 214 219 219 221 217 207 209 219 214 229 224 238 252 261 249 229 227 229 226 259 305 356 18 334 39 14 20 1 315 330 358 353 23 19 358 286 195 357
211 202 202 206 217 221 223 221 220 222 214 207 204 207 202 211 225 238 247 243 232 233 229 256 249 270 310 315 307 328 310 320 318 316 318 335 342 356 344 1 71 162 333